PIA1087 OPKC-OAKB

Flight info

Callsign PIA1087
Flight time 1h 36m
Altitude 35000
Route BADUL B466 NH J119 SK G214 LUBNA G326 ZB G325 SAJAN/N0462F360 A466 SITAX M875 KODAD DCT LEELO
Aircraft A320/M-SDE3FGHIRWY/LB1

Departure

Time 2026-05-09 14:44
Airport Jinnah International Airport (OPKC)

Arrival

Time 2026-05-09 16:21
Airport Kabul International Airport (OAKB)
Time Latitude Longitude Altitude Speed Heading
2026-05-09 14:23 24.90236 67.16853 102 ft 0 kts 88°
2026-05-09 14:23 24.90236 67.16854 101 ft 0 kts 88°
2026-05-09 14:36 24.90235 67.16846 101 ft 4 kts 87°
2026-05-09 14:36 24.90233 67.16816 101 ft 4 kts 82°
2026-05-09 14:37 24.90228 67.16787 101 ft 4 kts 68°
2026-05-09 14:37 24.90215 67.16766 101 ft 4 kts 16°
2026-05-09 14:37 24.90207 67.16764 100 ft 0 kts 344°
2026-05-09 14:41 24.90256 67.16748 101 ft 17 kts 343°
2026-05-09 14:41 24.90375 67.16713 101 ft 16 kts 346°
2026-05-09 14:41 24.90461 67.16696 102 ft 11 kts 20°
2026-05-09 14:41 24.90497 67.16783 102 ft 19 kts 73°
2026-05-09 14:42 24.90548 67.16974 101 ft 29 kts 74°
2026-05-09 14:42 24.90602 67.17188 101 ft 29 kts 75°
2026-05-09 14:42 24.90660 67.17390 102 ft 20 kts 59°
2026-05-09 14:42 24.90758 67.17466 104 ft 16 kts 25°
2026-05-09 14:43 24.90843 67.17469 107 ft 11 kts 311°
2026-05-09 14:43 24.90850 67.17381 107 ft 19 kts 255°
2026-05-09 14:43 24.90751 67.16996 107 ft 85 kts 255°
2026-05-09 14:43 24.90542 67.16168 105 ft 137 kts 254°
2026-05-09 14:44 24.90248 67.15010 140 ft 174 kts 255°
2026-05-09 14:44 24.89995 67.13713 842 ft 174 kts 269°
2026-05-09 14:44 24.90390 67.12485 1527 ft 176 kts 314°
2026-05-09 14:44 24.91562 67.11954 1962 ft 201 kts 357°
2026-05-09 14:45 24.92936 67.12540 2146 ft 229 kts 38°
2026-05-09 14:45 24.94046 67.13887 2386 ft 249 kts 51°
2026-05-09 14:45 24.95082 67.15493 2819 ft 262 kts 53°
2026-05-09 14:45 24.96129 67.17145 3453 ft 264 kts 54°
2026-05-09 14:46 24.97225 67.18788 4084 ft 268 kts 53°
2026-05-09 14:46 24.98375 67.20410 4724 ft 269 kts 52°
2026-05-09 14:46 24.99576 67.22022 5327 ft 273 kts 51°
2026-05-09 14:46 25.00814 67.23635 5863 ft 283 kts 50°
2026-05-09 14:47 25.02123 67.25311 6358 ft 292 kts 49°
2026-05-09 14:47 25.03459 67.27009 6997 ft 294 kts 50°
2026-05-09 14:47 25.04799 67.28705 7721 ft 293 kts 49°
2026-05-09 14:47 25.06141 67.30403 8440 ft 293 kts 49°
2026-05-09 14:48 25.07479 67.32099 9193 ft 292 kts 49°
2026-05-09 14:48 25.08791 67.33764 9938 ft 291 kts 49°
2026-05-09 14:48 25.10119 67.35446 10605 ft 291 kts 47°
2026-05-09 14:48 25.11620 67.36942 11251 ft 291 kts 39°
2026-05-09 14:49 25.13178 67.38373 11939 ft 292 kts 39°
2026-05-09 14:49 25.14740 67.39814 12562 ft 294 kts 39°
2026-05-09 14:49 25.16318 67.41271 13198 ft 296 kts 39°
2026-05-09 14:49 25.17899 67.42733 13826 ft 297 kts 39°
2026-05-09 14:50 25.19492 67.44205 14361 ft 300 kts 39°
2026-05-09 14:50 25.21101 67.45694 14893 ft 303 kts 40°
2026-05-09 14:50 25.22720 67.47194 15438 ft 305 kts 40°
2026-05-09 14:50 25.24358 67.48704 15970 ft 308 kts 40°
2026-05-09 14:51 25.26019 67.50223 16488 ft 311 kts 40°
2026-05-09 14:51 25.27700 67.51757 16994 ft 314 kts 40°
2026-05-09 14:51 25.29394 67.53302 17501 ft 317 kts 40°
2026-05-09 14:51 25.31108 67.54868 17990 ft 321 kts 40°
2026-05-09 14:52 25.32831 67.56442 18431 ft 323 kts 40°
2026-05-09 14:52 25.34553 67.58017 18858 ft 326 kts 40°
2026-05-09 14:52 25.36307 67.59620 19274 ft 328 kts 40°
2026-05-09 14:52 25.38071 67.61238 19714 ft 331 kts 40°
2026-05-09 14:53 25.39267 67.62335 20007 ft 332 kts 40°
2026-05-09 14:53 25.41629 67.64506 20570 ft 335 kts 40°
2026-05-09 14:53 25.43435 67.66165 20979 ft 338 kts 39°
2026-05-09 14:53 25.45251 67.67829 21416 ft 339 kts 39°
2026-05-09 14:54 25.46487 67.68960 21677 ft 341 kts 39°
2026-05-09 14:54 25.48327 67.70644 22060 ft 345 kts 39°
2026-05-09 14:54 25.50184 67.72344 22497 ft 347 kts 39°
2026-05-09 14:54 25.52049 67.74054 22901 ft 350 kts 38°
2026-05-09 14:55 25.53928 67.75781 23266 ft 354 kts 38°
2026-05-09 14:55 25.55825 67.77528 23632 ft 355 kts 38°
2026-05-09 14:55 25.57728 67.79284 23969 ft 358 kts 38°
2026-05-09 14:55 25.59624 67.81033 24265 ft 361 kts 38°
2026-05-09 14:56 25.61560 67.82816 24600 ft 363 kts 37°
2026-05-09 14:56 25.63508 67.84606 24927 ft 365 kts 37°
2026-05-09 14:56 25.65472 67.86411 25211 ft 368 kts 37°
2026-05-09 14:56 25.67450 67.88230 25550 ft 370 kts 37°
2026-05-09 14:57 25.69435 67.90059 25872 ft 373 kts 37°
2026-05-09 14:57 25.71439 67.91907 26168 ft 375 kts 38°
2026-05-09 14:57 25.73453 67.93767 26472 ft 378 kts 38°
2026-05-09 14:57 25.75480 67.95637 26775 ft 380 kts 38°
2026-05-09 14:58 25.77524 67.97520 27081 ft 383 kts 37°
2026-05-09 14:58 25.79579 67.99418 27391 ft 385 kts 37°
2026-05-09 14:58 25.81641 68.01328 27683 ft 388 kts 37°
2026-05-09 14:58 25.83718 68.03254 27966 ft 391 kts 37°
2026-05-09 14:59 25.85811 68.05194 28280 ft 393 kts 37°
2026-05-09 14:59 25.87917 68.07143 28575 ft 395 kts 37°
2026-05-09 14:59 25.90027 68.09099 28967 ft 395 kts 37°
2026-05-09 14:59 25.92141 68.11060 29351 ft 395 kts 37°
2026-05-09 15:00 25.94252 68.13019 29731 ft 395 kts 37°
2026-05-09 15:00 25.96362 68.14979 30061 ft 395 kts 37°
2026-05-09 15:00 25.98472 68.16940 30394 ft 395 kts 37°
2026-05-09 15:00 26.00580 68.18901 30728 ft 394 kts 37°
2026-05-09 15:01 26.04773 68.22798 31432 ft 392 kts 36°
2026-05-09 15:01 26.06836 68.24714 31786 ft 391 kts 36°
2026-05-09 15:01 26.08918 68.26648 32181 ft 389 kts 36°
2026-05-09 15:02 26.11016 68.28597 32538 ft 388 kts 36°
2026-05-09 15:02 26.13086 68.30523 32798 ft 389 kts 36°
2026-05-09 15:02 26.15167 68.32465 33017 ft 391 kts 36°
2026-05-09 15:02 26.17255 68.34413 33240 ft 392 kts 36°
2026-05-09 15:03 26.19387 68.36306 33450 ft 392 kts 30°
2026-05-09 15:03 26.21705 68.37887 33657 ft 389 kts 22°
2026-05-09 15:03 26.24179 68.39108 33810 ft 388 kts 15°
2026-05-09 15:03 26.26766 68.39950 33921 ft 388 kts
2026-05-09 15:04 26.29404 68.40657 34036 ft 392 kts
2026-05-09 15:04 26.32028 68.41368 34142 ft 395 kts
2026-05-09 15:06 26.51265 68.46614 34718 ft 422 kts
2026-05-09 15:06 26.57059 68.48202 34718 ft 434 kts 10°
2026-05-09 15:07 26.63005 68.49842 34716 ft 445 kts 10°
2026-05-09 15:07 26.69065 68.51506 34717 ft 450 kts 10°
2026-05-09 15:08 26.75152 68.53183 34717 ft 450 kts
2026-05-09 15:08 26.84286 68.55644 34714 ft 450 kts
2026-05-09 15:10 27.08644 68.62232 34718 ft 451 kts
2026-05-09 15:11 27.14712 68.63883 34722 ft 451 kts
2026-05-09 15:11 27.20845 68.65559 34722 ft 451 kts
2026-05-09 15:12 27.26925 68.67217 34729 ft 450 kts
2026-05-09 15:12 27.32970 68.68868 34725 ft 450 kts
2026-05-09 15:13 27.39097 68.70538 34721 ft 450 kts
2026-05-09 15:13 27.45144 68.72185 34720 ft 450 kts
2026-05-09 15:14 27.51272 68.73856 34720 ft 450 kts
2026-05-09 15:14 27.57326 68.75514 34734 ft 451 kts
2026-05-09 15:15 27.63415 68.77188 34729 ft 450 kts
2026-05-09 15:15 27.69313 68.79625 34720 ft 460 kts 27°
2026-05-09 15:16 27.71903 68.81776 34716 ft 466 kts 38°
2026-05-09 15:16 27.74136 68.84524 34712 ft 473 kts 50°
2026-05-09 15:16 27.77328 68.91031 34716 ft 479 kts 59°
2026-05-09 15:17 27.80315 68.97752 34719 ft 479 kts 59°
2026-05-09 15:17 27.83307 69.04481 34716 ft 479 kts 59°
2026-05-09 15:18 27.86997 69.10581 34710 ft 464 kts 36°
2026-05-09 15:18 27.89591 69.12658 34709 ft 453 kts 22°
2026-05-09 15:18 27.92496 69.13933 34713 ft 444 kts
2026-05-09 15:19 27.98512 69.15433 34704 ft 443 kts
2026-05-09 15:19 28.04542 69.16926 34700 ft 444 kts
2026-05-09 15:20 28.13593 69.19200 34699 ft 444 kts
2026-05-09 15:21 28.19631 69.20713 34725 ft 444 kts
2026-05-09 15:21 28.25660 69.22218 34724 ft 443 kts
2026-05-09 15:22 28.31680 69.23720 34716 ft 443 kts
2026-05-09 15:22 28.37700 69.25230 34715 ft 443 kts
2026-05-09 15:23 28.43716 69.26735 34721 ft 443 kts
2026-05-09 15:23 28.49728 69.28244 34727 ft 443 kts
2026-05-09 15:24 28.55746 69.29764 34739 ft 443 kts
2026-05-09 15:24 28.61770 69.31285 34733 ft 443 kts
2026-05-09 15:25 28.67791 69.32809 34749 ft 443 kts
2026-05-09 15:25 28.73818 69.34325 34750 ft 443 kts
2026-05-09 15:26 28.82855 69.36606 34775 ft 444 kts
2026-05-09 15:26 28.88900 69.38141 34787 ft 444 kts
2026-05-09 15:27 28.94935 69.39674 34790 ft 444 kts
2026-05-09 15:27 29.00973 69.41204 34807 ft 444 kts
2026-05-09 15:28 29.06981 69.42727 34813 ft 445 kts
2026-05-09 15:28 29.13015 69.44267 34818 ft 444 kts
2026-05-09 15:29 29.19049 69.45811 34813 ft 444 kts
2026-05-09 15:29 29.25087 69.47345 34820 ft 444 kts
2026-05-09 15:30 29.31126 69.48883 34823 ft 444 kts
2026-05-09 15:30 29.37111 69.50418 34840 ft 443 kts
2026-05-09 15:31 29.43134 69.51964 34839 ft 443 kts
2026-05-09 15:31 29.49148 69.53504 34849 ft 442 kts
2026-05-09 15:32 29.55142 69.55049 34847 ft 441 kts
2026-05-09 15:32 29.61132 69.56591 34853 ft 441 kts
2026-05-09 15:33 29.66110 69.57865 34853 ft 440 kts
2026-05-09 15:33 29.72121 69.59402 34858 ft 440 kts
2026-05-09 15:34 29.78055 69.60932 34844 ft 439 kts
2026-05-09 15:34 29.84026 69.62484 34859 ft 440 kts
2026-05-09 15:35 29.90002 69.64028 34879 ft 440 kts
2026-05-09 15:35 29.95977 69.65572 34876 ft 440 kts
2026-05-09 15:36 30.01949 69.67118 34886 ft 439 kts
2026-05-09 15:36 30.07915 69.68667 34884 ft 439 kts
2026-05-09 15:37 30.13887 69.70226 34882 ft 439 kts
2026-05-09 15:37 30.19852 69.71773 34876 ft 440 kts
2026-05-09 15:38 30.25834 69.73321 34872 ft 440 kts
2026-05-09 15:38 30.31815 69.74881 34869 ft 441 kts
2026-05-09 15:39 30.37805 69.76450 34873 ft 442 kts
2026-05-09 15:39 30.43800 69.78028 34875 ft 442 kts
2026-05-09 15:40 30.49795 69.79593 34883 ft 442 kts
2026-05-09 15:40 30.55801 69.81164 34890 ft 442 kts
2026-05-09 15:41 30.61807 69.82742 34896 ft 442 kts
2026-05-09 15:41 30.67809 69.84318 34894 ft 442 kts
2026-05-09 15:42 30.73819 69.85902 34915 ft 443 kts
2026-05-09 15:42 30.79820 69.87491 34932 ft 442 kts
2026-05-09 15:43 30.85815 69.89076 34931 ft 441 kts
2026-05-09 15:43 30.91798 69.90645 34938 ft 441 kts
2026-05-09 15:44 30.97781 69.92215 34936 ft 440 kts
2026-05-09 15:44 31.03759 69.93800 34929 ft 441 kts
2026-05-09 15:45 31.09744 69.95393 34914 ft 441 kts
2026-05-09 15:45 31.15737 69.96987 34898 ft 442 kts
2026-05-09 15:46 31.21743 69.98583 34903 ft 443 kts
2026-05-09 15:46 31.27716 70.00174 34905 ft 443 kts
2026-05-09 15:47 31.33724 70.01774 34910 ft 443 kts
2026-05-09 15:47 31.39748 70.03374 34894 ft 444 kts
2026-05-09 15:48 31.45777 70.04990 34899 ft 444 kts
2026-05-09 15:48 31.51798 70.06604 34860 ft 444 kts
2026-05-09 15:49 31.57829 70.08216 34866 ft 444 kts
2026-05-09 15:49 31.63850 70.09830 34849 ft 443 kts
2026-05-09 15:50 31.69859 70.11443 34834 ft 443 kts
2026-05-09 15:50 31.75868 70.13059 34836 ft 443 kts
2026-05-09 15:51 31.81877 70.14677 34824 ft 443 kts
2026-05-09 15:51 31.87880 70.16300 34831 ft 442 kts
2026-05-09 15:52 31.96888 70.18736 34829 ft 443 kts
2026-05-09 15:53 32.02892 70.20352 34821 ft 442 kts
2026-05-09 15:53 32.08877 70.21977 34825 ft 441 kts
2026-05-09 15:54 32.14811 70.23593 34836 ft 440 kts
2026-05-09 15:54 32.20771 70.25206 34830 ft 439 kts
2026-05-09 15:55 32.26729 70.26827 34826 ft 439 kts
2026-05-09 15:55 32.32678 70.28449 34842 ft 439 kts
2026-05-09 15:56 32.38629 70.30071 34835 ft 439 kts
2026-05-09 15:56 32.44580 70.31693 34852 ft 439 kts
2026-05-09 15:57 32.50528 70.33325 34851 ft 439 kts
2026-05-09 15:57 32.56486 70.34956 34834 ft 439 kts
2026-05-09 15:58 32.62441 70.35612 34834 ft 424 kts 349°
2026-05-09 15:58 32.68017 70.33845 34852 ft 411 kts 330°
2026-05-09 15:59 32.72928 70.30465 34866 ft 408 kts 326°
2026-05-09 15:59 32.77799 70.26972 34867 ft 408 kts 326°
2026-05-09 16:00 32.82664 70.23479 34872 ft 409 kts 326°
2026-05-09 16:00 32.87538 70.19986 34904 ft 409 kts 325°
2026-05-09 16:01 32.92410 70.16482 34900 ft 409 kts 325°
2026-05-09 16:01 32.97262 70.12983 34898 ft 410 kts 325°
2026-05-09 16:02 33.02141 70.09460 34896 ft 410 kts 325°
2026-05-09 16:02 33.07035 70.05921 34552 ft 411 kts 325°
2026-05-09 16:02 33.09496 70.04169 34332 ft 412 kts 326°
2026-05-09 16:03 33.12005 70.02509 34105 ft 413 kts 328°
2026-05-09 16:03 33.14560 70.00912 33876 ft 414 kts 329°
2026-05-09 16:03 33.17133 69.99344 33614 ft 416 kts 329°
2026-05-09 16:03 33.19709 69.97772 33361 ft 417 kts 329°
2026-05-09 16:04 33.22292 69.96179 33101 ft 418 kts 329°
2026-05-09 16:04 33.24874 69.94565 32847 ft 420 kts 329°
2026-05-09 16:04 33.27463 69.92931 32631 ft 422 kts 329°
2026-05-09 16:04 33.30063 69.91282 32381 ft 423 kts 329°
2026-05-09 16:05 33.32674 69.89624 32145 ft 425 kts 329°
2026-05-09 16:05 33.35292 69.87962 31898 ft 426 kts 329°
2026-05-09 16:05 33.37917 69.86293 31652 ft 428 kts 329°
2026-05-09 16:05 33.40551 69.84620 31409 ft 431 kts 329°
2026-05-09 16:06 33.43216 69.82930 31164 ft 435 kts 329°
2026-05-09 16:06 33.45898 69.81231 30944 ft 437 kts 329°
2026-05-09 16:06 33.48592 69.79523 30739 ft 439 kts 329°
2026-05-09 16:06 33.51292 69.77808 29871 ft 443 kts 330°
2026-05-09 16:07 33.54041 69.76061 28626 ft 451 kts 330°
2026-05-09 16:07 33.56825 69.74318 27845 ft 449 kts 330°
2026-05-09 16:07 33.59554 69.72630 27134 ft 445 kts 330°
2026-05-09 16:07 33.62301 69.70941 26419 ft 442 kts 331°
2026-05-09 16:08 33.65031 69.69269 25731 ft 439 kts 331°
2026-05-09 16:08 33.67741 69.67605 25050 ft 436 kts 330°
2026-05-09 16:08 33.70435 69.65939 24385 ft 434 kts 330°
2026-05-09 16:08 33.73109 69.64276 23730 ft 433 kts 330°
2026-05-09 16:09 33.75781 69.62611 22999 ft 430 kts 330°
2026-05-09 16:09 33.78424 69.60964 22380 ft 426 kts 330°
2026-05-09 16:09 33.81035 69.59335 21780 ft 421 kts 330°
2026-05-09 16:09 33.83627 69.57713 21212 ft 417 kts 331°
2026-05-09 16:10 33.86185 69.56114 20654 ft 412 kts 331°
2026-05-09 16:10 33.88720 69.54531 20125 ft 408 kts 331°
2026-05-09 16:10 33.91229 69.52965 19597 ft 405 kts 331°
2026-05-09 16:10 33.93714 69.51412 19090 ft 401 kts 331°
2026-05-09 16:11 33.96185 69.49866 18563 ft 399 kts 331°
2026-05-09 16:11 33.98646 69.48326 18157 ft 399 kts 331°
2026-05-09 16:11 34.01116 69.46778 18013 ft 400 kts 331°
2026-05-09 16:11 34.03585 69.45227 17588 ft 398 kts 331°
2026-05-09 16:12 34.06048 69.43682 16195 ft 401 kts 331°
2026-05-09 16:12 34.08490 69.42172 15632 ft 383 kts 334°
2026-05-09 16:12 34.10913 69.41139 15467 ft 363 kts 345°
2026-05-09 16:12 34.13413 69.40673 14992 ft 364 kts 356°
2026-05-09 16:13 34.15096 69.40690 14657 ft 365 kts
2026-05-09 16:13 34.17628 69.41053 14124 ft 368 kts
2026-05-09 16:13 34.20159 69.41436 13709 ft 364 kts
2026-05-09 16:13 34.22669 69.41809 13227 ft 361 kts
2026-05-09 16:14 34.25114 69.42169 13100 ft 348 kts
2026-05-09 16:14 34.27479 69.42517 12972 ft 337 kts
2026-05-09 16:14 34.29784 69.42857 12515 ft 335 kts
2026-05-09 16:14 34.32139 69.43208 11771 ft 345 kts
2026-05-09 16:15 34.34494 69.43559 11533 ft 336 kts
2026-05-09 16:15 34.36787 69.43898 11319 ft 327 kts
2026-05-09 16:15 34.39021 69.44226 11085 ft 319 kts
2026-05-09 16:15 34.41197 69.44547 10871 ft 311 kts
2026-05-09 16:16 34.43290 69.44858 10658 ft 297 kts
2026-05-09 16:16 34.45325 69.45160 10513 ft 292 kts
2026-05-09 16:16 34.47313 69.45454 10399 ft 284 kts
2026-05-09 16:16 34.49219 69.45254 10262 ft 273 kts 337°
2026-05-09 16:17 34.50660 69.43868 10153 ft 264 kts 303°
2026-05-09 16:17 34.51338 69.41855 10138 ft 250 kts 290°
2026-05-09 16:17 34.51832 69.39921 10140 ft 234 kts 289°
2026-05-09 16:17 34.52297 69.38048 10151 ft 231 kts 289°
2026-05-09 16:18 34.52761 69.36187 10103 ft 231 kts 289°
2026-05-09 16:18 34.53235 69.34305 9590 ft 235 kts 289°
2026-05-09 16:18 34.53710 69.32434 9050 ft 227 kts 289°
2026-05-09 16:18 34.54164 69.30635 8464 ft 220 kts 289°
2026-05-09 16:19 34.54611 69.28892 7913 ft 212 kts 289°
2026-05-09 16:19 34.55043 69.27217 7404 ft 204 kts 288°
2026-05-09 16:19 34.55455 69.25619 7006 ft 194 kts 288°
2026-05-09 16:19 34.55850 69.24088 6612 ft 188 kts 288°
2026-05-09 16:20 34.56234 69.22599 6112 ft 182 kts 288°
2026-05-09 16:20 34.56589 69.21178 5868 ft 165 kts 286°
2026-05-09 16:20 34.56867 69.20108 5844 ft 70 kts 290°
2026-05-09 16:20 34.57000 69.19650 5840 ft 54 kts 287°
2026-05-09 16:21 34.57069 69.19462 5847 ft 13 kts 353°
2026-05-09 16:21 34.57163 69.19472 5837 ft 14 kts 18°
2026-05-09 16:21 34.57197 69.19568 5837 ft 14 kts 103°
2026-05-09 16:21 34.57177 69.19689 5841 ft 15 kts 73°
2026-05-09 16:22 34.57203 69.19729 5838 ft 0 kts 41°